星链-6047 (STARLINK-6047 )

导读

STARLINK-6047是美国SpaceX公司星链(Starlink)星座的一员,于2023年5月10日发射升空。作为低地球轨道通信卫星,它运行在约550公里高度,配备相控阵天线与自主避障技术,依托星链星座组网,可为全球偏远地区提供低延迟、高速宽带互联网服务,助力缩小数字鸿沟,支撑消费通信与特殊场景联网需求。

Basic Information
目录编号:
56460
目录名称:
STARLINK-6047
国际标识:
2023-064N
轨道中心:
EARTH
卫星名称:
星链-6047
卫星全名:
星链-6047 (STARLINK-6047 )
卫星状态:
在轨 (已飞行1132 天)
发射日期:
2023-05-10 UTC
国别 :
美国 (US)
星等 :
--
Orbit Information
数据来源 国际轨道数据 AOE轨道数据
星历时间 2026-06-14T20:47:27+0800
11小时前
查看轨道信息
2026-06-13T10:00:00+0800
1天前
查看轨道信息
半长轴 6950.19km 6950.072km
偏心率 0.0003474 0.0003236
轨道倾角 69.999° 70.000°
近地点辐角 267.847° 266.128°
升交点赤经 260.219° 263.872°
平近点角 92.229° 197.065°
近地点 569.638km 569.685km
远地点 574.468km 574.185km
周期 96.107分钟 96.104分钟
每日圈数 14.98331 14.983692
Detailed Information
固有亮度:
5
最大亮度:
2.5
卫星平台:
Starlink v1.5
覆盖范围:
全球
运营商:
太空探索技术公司
运营商所在国:
美国
制造商(研发单位):
太空探索技术公司
制造商所在国:
美国
使用方式:
暂无
Satellite Introduction
星链(Starlink)计划是由太空探索技术公司(SpaceX)提出的一个巨型低轨卫星互联网星座项目,计划在2019年至2024年间在太空搭建由约1.2万颗卫星组成的“星链”网络,其中1584颗将部署在地球上空550千米处的近地轨道,并从2020年开始工作。该卫星仍在工作。
2D Orbit Map
3D Orbit Map
Orbit Altitude Analysis Chart
Orbit Inclination Analysis Chart
Orbit Comprehensive Analysis Chart
View Comprehensive Chart